Erie, CO

1:40 PM MDT on August 18, 2017 (GMT -0600)
Erie Municipal Airport

Weather History for KEIK - January, 2013

Change the Weather History Date:

Wednesday, January 23, 2013

  Actual Average (KBJC) Record (KBJC)
Temperature  
Mean Temperature 41 °F -  
Max Temperature 65 °F 44 °F 69 °F (2005)
Min Temperature 17 °F 25 °F 1 °F (2008)
Degree Days  
Heating Degree Days 24    
Moisture  
Dew Point 1 °F    
Average Humidity 26    
Maximum Humidity 61    
Minimum Humidity 5    
Precipitation  
Precipitation 0.00 in - - ()
Sea Level Pressure  
Sea Level Pressure 30.13 in    
Wind  
Wind Speed 4 mph (SW)    
Max Wind Speed 16 mph    
Max Gust Speed 30 mph    
Visibility 10 miles    
Events      
Averages and records for this station are not official NWS values.
T = Trace of Precipitation, MM = Missing Value Source: NWS Daily Summary

Daily Weather History Graph

Daily Weather History Graph

Search for Another Location

Airport or City:

Trip Planner

Search our weather history database for the weather conditions in past years. The results will help you decide how hot, cold, wet, or windy it might be!

Date:

Astronomy

Jan. 23, 2013 Rise Set
Actual Time 7:15 AM MST 5:08 PM MST
Civil Twilight 6:46 AM MST 5:38 PM MST
Nautical Twilight 6:13 AM MST 6:11 PM MST
Astronomical Twilight 5:41 AM MST 6:43 PM MST
Moon 2:21 PM MST (1/23) 4:29 AM MST (1/23)
Length of Visible Light 10h 51m
Length of Day
9h 53m
Waxing Gibbous, 89% of the Moon is Illuminated
Jan 23
Waxing Gibbous
Jan 26
Full
Feb 3
Last Quarter
Feb 10
New
Feb 17
First Quarter

Hourly Weather History & Observations

Time (MST) Temp. Windchill Dew Point Humidity Pressure Visibility Wind Dir Wind Speed Gust Speed Precip Events Conditions
12:16 AM 23.2 °F - 4.6 °F 45% 30.14 in 10.0 mi Calm Calm - N/A   Clear
12:36 AM 23.0 °F - 5.7 °F 48% 30.14 in 10.0 mi Calm Calm - N/A   Clear
12:56 AM 20.8 °F 16.0 °F 5.7 °F 52% 30.14 in 10.0 mi SSW 3.5 mph - N/A   Clear
1:16 AM 19.2 °F - 5.4 °F 55% 30.14 in 10.0 mi Calm Calm - N/A   Clear
1:36 AM 17.8 °F - 6.4 °F 61% 30.14 in 10.0 mi Calm Calm - N/A   Clear
1:56 AM 17.2 °F 10.2 °F 4.8 °F 58% 30.14 in 10.0 mi South 4.6 mph - N/A   Clear
2:16 AM 18.9 °F 12.1 °F 4.5 °F 54% 30.14 in 10.0 mi SSW 4.6 mph - N/A   Clear
2:36 AM 19.6 °F - 4.6 °F 52% 30.13 in 10.0 mi Calm Calm - N/A   Clear
2:56 AM 19.0 °F 11.1 °F 6.4 °F 58% 30.13 in 10.0 mi SSW 5.8 mph - N/A   Clear
3:16 AM 20.8 °F 16.0 °F 4.5 °F 49% 30.13 in 10.0 mi North 3.5 mph - N/A   Clear
3:36 AM 20.5 °F - 3.7 °F 48% 30.13 in 10.0 mi Calm Calm - N/A   Clear
3:56 AM 21.2 °F - 5.0 °F 50% 30.13 in 10.0 mi Calm Calm - N/A   Clear
4:16 AM 21.7 °F 17.0 °F 5.5 °F 50% 30.13 in 10.0 mi SW 3.5 mph - N/A   Clear
4:36 AM 21.9 °F 17.2 °F 7.0 °F 53% 30.14 in 10.0 mi SSW 3.5 mph - N/A   Clear
4:56 AM 23.2 °F - 7.9 °F 52% 30.13 in 10.0 mi Calm Calm - N/A   Clear
5:16 AM 24.6 °F - 7.3 °F 48% 30.13 in 10.0 mi Calm Calm - N/A   Clear
5:36 AM 27.1 °F 19.7 °F 5.5 °F 40% 30.14 in 10.0 mi WSW 6.9 mph - N/A   Clear
5:56 AM 29.3 °F - 3.7 °F 34% 30.14 in 10.0 mi Calm Calm - N/A   Clear
6:16 AM 28.2 °F 23.1 °F 4.6 °F 37% 30.15 in 10.0 mi SSW 4.6 mph - N/A   Clear
6:36 AM 29.7 °F 26.1 °F 3.9 °F 34% 30.15 in 10.0 mi SSW 3.5 mph - N/A   Clear
6:56 AM 33.6 °F 26.8 °F -1.5 °F 22% 30.15 in 10.0 mi South 8.1 mph - N/A   Clear
7:16 AM 37.4 °F 32.1 °F -4.0 °F 17% 30.15 in 10.0 mi SSW 6.9 mph - N/A   Clear
7:36 AM 36.9 °F 31.4 °F -2.0 °F 19% 30.14 in 10.0 mi SW 6.9 mph - N/A   Clear
7:56 AM 36.7 °F 31.2 °F 1.0 °F 22% 30.13 in 7.0 mi SW 6.9 mph - N/A   Clear
8:16 AM 41.2 °F 35.5 °F -1.5 °F 17% 30.14 in 10.0 mi West 9.2 mph - N/A   Clear
8:36 AM 48.9 °F - -2.6 °F 12% 30.14 in 10.0 mi Calm Calm - N/A   Clear
8:56 AM 58.1 °F - -9.4 °F 6% 30.15 in 10.0 mi WSW 13.8 mph 19.6 mph N/A   Clear
9:16 AM 59.9 °F - -9.8 °F 6% 30.15 in 10.0 mi West 11.5 mph - N/A   Clear
9:36 AM 55.6 °F - -7.2 °F 7% 30.16 in 10.0 mi WSW 4.6 mph - N/A   Clear
9:56 AM 55.8 °F - -8.9 °F 7% 30.17 in 10.0 mi WSW 3.5 mph - N/A   Clear
10:16 AM 56.5 °F - -7.2 °F 7% 30.15 in 10.0 mi WSW 10.4 mph - N/A   Clear
10:36 AM 61.2 °F - -10.7 °F 5% 30.16 in 10.0 mi WSW 10.4 mph - N/A   Clear
10:56 AM 60.1 °F - -6.5 °F 7% 30.15 in 10.0 mi West 11.5 mph - N/A   Clear
11:16 AM 62.6 °F - -8.9 °F 5% 30.14 in 10.0 mi West 16.1 mph 23.0 mph N/A   Clear
11:36 AM 60.8 °F - -8.7 °F 6% 30.14 in 10.0 mi SW 5.8 mph - N/A   Clear
11:56 AM 61.2 °F - -8.9 °F 6% 30.12 in 10.0 mi South 8.1 mph - N/A   Clear
12:16 PM 62.1 °F - -8.5 °F 6% 30.11 in 10.0 mi SSW 4.6 mph - N/A   Clear
12:36 PM 62.6 °F - -10.1 °F 5% 30.10 in 10.0 mi South 6.9 mph - N/A   Clear
12:56 PM 61.7 °F - -10.7 °F 5% 30.10 in 10.0 mi SSE 8.1 mph - N/A   Clear
1:16 PM 59.9 °F - -9.0 °F 6% 30.10 in 10.0 mi SSE 6.9 mph - N/A   Clear
1:36 PM 60.6 °F - -8.1 °F 6% 30.10 in 10.0 mi SSW 4.6 mph - N/A   Clear
1:56 PM 61.3 °F - -7.1 °F 6% 30.10 in 10.0 mi Calm Calm - N/A   Clear
2:16 PM 60.3 °F - -4.0 °F 7% 30.10 in 10.0 mi Calm Calm - N/A   Clear
2:36 PM 63.0 °F - -3.6 °F 7% 30.09 in 10.0 mi WNW 11.5 mph - N/A   Clear
2:56 PM 65.3 °F - -7.2 °F 5% 30.08 in 7.0 mi WNW 13.8 mph 29.9 mph N/A   Clear
3:16 PM 65.7 °F - -7.2 °F 5% 30.08 in 10.0 mi NW 13.8 mph 20.7 mph N/A   Clear
3:36 PM 64.4 °F - -6.3 °F 6% 30.08 in 10.0 mi NW 6.9 mph 17.3 mph N/A   Clear
3:56 PM 58.1 °F - -7.1 °F 7% 30.09 in 10.0 mi SSE 4.6 mph - N/A   Clear
4:16 PM 59.5 °F - -4.9 °F 7% 30.09 in 10.0 mi Calm Calm - N/A   Clear
4:36 PM 55.8 °F - -3.6 °F 9% 30.09 in 10.0 mi East 8.1 mph - N/A   Clear
4:56 PM 56.1 °F - -2.2 °F 9% 30.10 in 10.0 mi ESE 3.5 mph - N/A   Clear
5:16 PM 54.9 °F - -2.2 °F 10% 30.11 in 10.0 mi East 9.2 mph - N/A   Clear
5:36 PM 48.0 °F - -0.4 °F 14% 30.11 in 10.0 mi SE 5.8 mph - N/A   Clear
5:56 PM 49.1 °F - 4.1 °F 16% 30.12 in 10.0 mi SSW 3.5 mph 9.2 mph N/A   Clear
6:16 PM 47.5 °F - 3.9 °F 17% 30.13 in 10.0 mi SSW 5.8 mph - N/A   Clear
6:36 PM 44.8 °F 42.4 °F 4.8 °F 19% 30.14 in 10.0 mi SSE 4.6 mph - N/A   Clear
6:56 PM 42.6 °F 39.9 °F 5.7 °F 22% 30.14 in 10.0 mi South 4.6 mph - N/A   Clear
7:16 PM 40.1 °F - 6.1 °F 24% 30.14 in 10.0 mi Calm Calm - N/A   Clear
7:36 PM 37.6 °F - 7.5 °F 29% 30.15 in 10.0 mi Calm Calm - N/A   Clear
7:56 PM 38.7 °F - 6.4 °F 26% 30.14 in 10.0 mi Calm Calm - N/A   Clear
8:16 PM 36.3 °F - 7.5 °F 30% 30.15 in 10.0 mi Calm Calm - N/A   Clear
8:36 PM 33.8 °F - 9.0 °F 36% 30.14 in 10.0 mi Calm Calm - N/A   Clear
8:56 PM 33.1 °F 28.7 °F 8.6 °F 36% 30.14 in 10.0 mi WSW 4.6 mph - N/A   Clear
9:16 PM 33.3 °F 30.2 °F 9.5 °F 37% 30.13 in 10.0 mi SW 3.5 mph - N/A   Clear
9:36 PM 33.6 °F - 9.1 °F 36% 30.12 in 10.0 mi Calm Calm - N/A   Clear
9:56 PM 33.3 °F - 8.4 °F 35% 30.13 in 10.0 mi Calm Calm - N/A   Clear
10:16 PM 33.4 °F 30.4 °F 9.9 °F 37% 30.12 in 10.0 mi East 3.5 mph - N/A   Clear
10:36 PM 33.1 °F - 10.4 °F 39% 30.14 in 10.0 mi Calm Calm - N/A   Clear
10:56 PM 32.4 °F 29.1 °F 10.4 °F 40% 30.14 in 10.0 mi NW 3.5 mph - N/A   Clear
11:16 PM 32.7 °F 29.6 °F 10.6 °F 40% 30.13 in 10.0 mi ENE 3.5 mph - N/A   Clear
11:36 PM 32.0 °F 27.5 °F 11.5 °F 43% 30.14 in 10.0 mi NW 4.6 mph - N/A   Clear
11:56 PM 33.1 °F 30.0 °F 12.7 °F 43% 30.14 in 10.0 mi North 3.5 mph - N/A   Clear